Starlink 34412

operational
NORAD ID: 66132 Int'l Des: 2025-237 Owner: SPXS Country: US Constellation: starlink
LEOCIRCULAR

Über Starlink 34412

Beschreibung wird geladen...

Live-Position

3D-Globus wird geladen...

Nächste Überflüge

Höhenverlauf

Altitude vs Time

uPlot chart will show altitude changes over time

Zweizeiliger Elementsatz

1 66132C 25237U 25298.72340278 -.01191600 00000+0 -18933-2 0 2983
2 66132 53.1548 319.2460 0000687 66.1288 133.8112 16.04223022 15
Epoch: 25. Okt. 2025 • Age: 156 hours

Aktueller Status

Höhe 293.8 km
Geschwindigkeit 7.74 km/s
Subsatellitenpunkt 53.31°N, 151.83°E
Startdatum 22. Okt. 2025
Alter 8 days
Typ internet

Technische Details

Klassifizierung Payload
Masse 575.00 kg
Trockenmasse 530.00 kg
Gesamtmasse 575.00 kg
Länge 0.30 m
Durchmesser 4.10 m
Spannweite 29.00 m
Form Box + pan
Hersteller SPXS
Bus-Typ Starlink V2MO
Phasenstatus In Orbit
Besitzer/Staat SPXS/US

Große Konstellationen

Loading constellations...